Regional Weather Roundup
Issued by NWS

Home | Current Version | Previous Version | Text Only | Print | Product List | Glossary On
Versions: 1 2 3 4 5 6 7 8 9 10 11 12 13 14 15 16 17 18 19 20 21 22 23 24 25 26 27 28 29 30 31 32 33 34 35 36 37 38 39 40 41 42 43 44 45 46 47 48 49 50
659
ASUS43 KLOT 271508
RWRIL

ILLINOIS REGIONAL WEATHER ROUNDUP
NATIONAL WEATHER SERVICE CHICAGO/ROMEOVILLE IL
1000 AM CDT FRI MAY 27 2016

NOTE: "FAIR" INDICATES FEW OR NO CLOUDS BELOW 12,000 FEET WITH NO
SIGNIFICANT WEATHER AND/OR OBSTRUCTIONS TO VISIBILITY.

* THESE STATIONS ARE NOT UNDER NWS QUALITY CONTROL. THEY ALSO MAY NOT
  REPORT WEATHER SUCH AS PRECIPITATION OR FOG.

ILZ001-002-007-009-015-016-024-271600-
NORTHWEST ILLINOIS

CITY           SKY/WX    TMP DP  RH WIND       PRES   REMARKS
MOLINE         CLOUDY    71  65  81 SE12      29.81F
STERLING*      CLOUDY    75  65  70 S8        29.86F
SAVANNA*       CLOUDY    73  65  75 S13G18    29.84S
$$

ILZ003-004-008-010-011-017-018-271600-
NORTH CENTRAL ILLINOIS

CITY           SKY/WX    TMP DP  RH WIND       PRES   REMARKS
ROCKFORD       CLOUDY    74  66  76 S8        29.90S
FREEPORT*      CLOUDY    72  63  74 S10       29.89S
ROCHELLE*      CLOUDY    75  65  73 S16       29.89S
DE KALB*       MOSUNNY   74  67  80 S14       29.91S
$$

ILZ005-006-012>014-019>023-271600-
NORTHEAST ILLINOIS

CITY           SKY/WX    TMP DP  RH WIND       PRES   REMARKS
CHICAGO-OHARE  CLOUDY    70  66  87 S8        29.89F
CHICAGO-MIDWAY CLOUDY    76  64  66 S10       29.90F
AURORA         MOSUNNY   76  66  71 S15       29.90S
LANSING*       CLOUDY    74  65  71 S13       29.92F
JOLIET*        PTSUNNY   75  67  75 S6        29.90F
WAUKEGAN       CLOUDY    71  68  90 S8        29.89R
DUPAGE AIRPORT CLOUDY    73  66  78 S10       29.90R
KANKAKEE*      CLOUDY    76  66  71 S15       29.94R
WHEELING       CLOUDY    70  67  90 S9        29.91S
MORRIS*        CLOUDY    75  65  70 S9        29.90S
ROMEOVILLE*    CLOUDY    74  64  69 SW9       29.90F
NORTHERLY ISL    N/A     73  64  73 SW8         N/A
NORTHERLY ISL    N/A     73  64  73 SW8         N/A
$$

LMZ740>746-271600-
SOUTHERN LAKE MICHIGAN

STATION/POSITION SKY/WX   TEMP    WIND        PRES    VSBY  WAVE
                          AIR SEA DIR/SP/G                  HT/PER
                          (F)     (DEG/KT/KT) (MB)    (MI)  (FT/S)
SOUTHERN BUOY              55 50  160/ 12/ 12 1012.4R         1
WILMETTE HARBOR            65 58  220/  4/  6   N/A           1
HARRISON CRIB              70     200/ 16/ 16   N/A
BURNHAM HARBOR             74     190/  7/ 14   N/A
CALUMET HARBOR             72     200/  8/ 14 1012.5R
BURNS HARBOR               71     190/ 12/ 16 1013.9R
MICHIGAN CITY              71     180/ 10/ 12   N/A
MICHIGAN CITY 6N           65 59  170/  4/  6   N/A           1
ST. JOSEPH                 65 61  210/  4/  6   N/A           1/ 2
$$

ILZ025>027-034>036-040-047-049-050-058-095>099-271600-
WEST-CENTRAL ILLINOIS

CITY           SKY/WX    TMP DP  RH WIND       PRES   REMARKS
QUINCY         CLOUDY    69  66  90 S17G26    29.81S
GALESBURG*     CLOUDY    69  65  88 SE12G18   29.84S
JACKSONVILLE*  RAIN      70  66  87 S16       29.87S
PITTSFIELD*    LGT RAIN  68  67  97 SE13      29.85F
$$

ILZ028>032-037-038-041>044-048-051>054-059>061-271600-
CENTRAL ILLINOIS

CITY           SKY/WX    TMP DP  RH WIND       PRES   REMARKS
PONTIAC        PTSUNNY   77  67  70 S17G26    29.92S
BLOOMINGTON    PTSUNNY   73  68  84 S20       29.93S
DECATUR        CLOUDY    71  64  78 S15       29.93S
PEORIA         CLOUDY    72  64  76 S15       29.87S
LACON*         PTSUNNY   73  64  74 S15G22    29.87S
LINCOLN*       CLOUDY    73  67  82 S13       29.90F
SPRINGFIELD    CLOUDY    72  66  81 S16G25    29.89F
TAYLORVILLE    DRIZZLE   68  65  92 SE14G20   29.91F
$$

ILZ033-039-045-046-055>057-062-063-271600-
EAST-CENTRAL ILLINOIS

CITY           SKY/WX    TMP DP  RH WIND       PRES   REMARKS
CHAMPAIGN      PTSUNNY   76  63  64 S13       29.93F
RANTOUL*       CLOUDY    76  68  76 S15G21    29.95F
MATTOON        MOSUNNY   72  64  76 S10       29.94F
PARIS*         MOSUNNY   72  66  81 SE6       29.97F
$$

ILZ079-100>102-271600-
SOUTHWEST ILLINOIS

CITY           SKY/WX    TMP DP  RH WIND       PRES   REMARKS
ALTON          DRIZZLE   68  66  94 SE9       29.91R
BELLEVILLE     LGT RAIN  69  69 100 E8        29.90S
CAHOKIA*       LGT RAIN  70  66  87 SE10      29.89S
SPARTA*        RAIN      66  66  97 SE10      29.94S
$$

ILZ064>066-069>071-074>076-080>082-084>086-088>090-092>094-271600-
SOUTH-CENTRAL ILLINOIS

CITY           SKY/WX    TMP DP  RH WIND       PRES   REMARKS
CARBONDALE     CLOUDY    67  65  93 SE5       29.95S
CAIRO*         CLOUDY    71  68  92 SE3       29.95F
EFFINGHAM*     PTSUNNY   68  68  99 SE7       29.96F
MARION         LGT RAIN  70  68  94 SE6       29.96F
MT. VERNON     CLOUDY    68  63  83 S6        29.96S
CENTRALIA*     RAIN      67  67  98 S7        29.95R
SALEM*         CLOUDY    68  65  92 SE6       29.94F
METROPOLIS*    CLOUDY    73  70  90 SW6       29.97S
$$

ILZ067-068-072-073-078-083-087-091-271600-
SOUTHEAST ILLINOIS

CITY           SKY/WX    TMP DP  RH WIND       PRES   REMARKS
LAWRENCEVILLE  CLOUDY    75  68  78 S12       29.98S
FLORA*         CLOUDY    71  67  84 S8        29.97S
FAIRFIELD*     CLOUDY    71  66  84 S6        29.96S
HARRISBURG*    CLOUDY    71  67  87 CALM      29.97S
ROBINSON*      CLOUDY    73  66  77 S6        29.98F
CARMI*         PTSUNNY   72  68  86 S10       29.97S
$$

ABBREVIATIONS USED IN REMARKS
   TC - TEMPERATURE IN CELSIUS
  WCI - WIND CHILL INDEX
   HX - HEAT INDEX
  VSB - VISIBILITY
$$





USA.gov is the U.S. government's official web portal to all federal, state and local government web resources and services.